[[{"header":{"parameterUnit":"m.s-1","parameterCategory":1,"la1":30.2991,"la2":30.254,"lo1":-89.0895,"lo2":-89.0444,"dy":0.0017,"dx":0.0017,"nx":28,"ny":28,"refTime":"2025-05-29T03:00:00:Z","depth":0,"parameterNumber":2,"parameterNumberName":"U-component_of_WINDS"},"data":[0,0,0,0,0,0,0,0,0,0,0,0,0,0,0,0,0,0,0,0,0,0,0,0,0,0,0,0,0,0,0,0,0,0,0,0,0,0,0,0,0,0,0,0,0,0,0,0,0,0,0,0,0,0,0,0,0,0,4.7536,4.7535,0,4.7407,4.7406,4.7404,4.7335,4.7335,4.7335,4.7335,4.7188,4.7184,4.718,0,0,0,0,0,0,0,0,0,0,0,0,0,4.7709,4.7706,4.7537,4.7535,4.7533,4.7408,4.7406,4.7404,4.7335,4.7335,4.7335,4.7335,4.7189,4.7184,4.718,0,0,0,0,0,0,0,0,0,0,0,0,0,4.7612,4.7705,4.7537,4.7484,4.7478,4.7408,4.7406,4.7403,4.7335,4.7335,4.7335,4.7335,4.719,4.7185,4.7179,4.7147,0,0,4.7162,4.7159,0,0,0,0,0,0,0,0,4.7617,4.7606,4.7494,4.7488,4.7481,4.7388,4.7412,4.7317,4.7335,4.7389,4.7335,4.7335,4.7253,4.7242,4.7218,4.714,4.7133,4.7161,4.7158,4.7155,4.7153,0,0,0,0,0,0,0,4.7624,4.7611,4.7485,4.7492,4.7484,4.7462,4.7448,4.7394,4.7323,4.7384,4.7379,4.7366,4.725,4.7224,4.7214,4.7131,4.7161,4.7156,4.7153,4.715,4.7016,4.7016,0,0,0,0,0,0,4.7642,4.7617,4.7489,4.7481,4.7551,4.7459,4.7444,4.7417,4.7324,4.7309,4.7366,4.7363,4.7234,4.7221,4.7209,4.7163,4.7155,4.715,4.7146,4.7016,4.7016,4.7016,0,0,0,0,0,0,4.7646,4.7631,4.7494,4.7548,4.7529,4.7457,4.7427,4.7415,4.7389,4.731,4.7295,4.7354,4.7233,4.7217,4.7163,4.7157,4.7147,4.7142,4.7016,4.7016,4.7016,4.7073,0,0,0,0,0,0,4.7651,4.7633,4.7623,4.7548,4.7526,4.7456,4.7427,4.7413,4.7381,4.7376,4.7294,4.728,4.7232,4.7172,4.7157,4.7149,4.7137,4.7017,4.7016,4.7016,4.7071,4.7074,4.7077,0,0,0,0,0,4.7657,4.7642,4.7623,4.7608,4.7514,4.7456,4.7443,4.7391,4.7381,4.7369,4.7317,4.7283,4.716,4.7167,4.715,4.714,4.7017,4.7016,4.7016,4.7069,4.7074,4.7077,0,0,0,0,0,0,4.7713,4.7631,4.761,4.757,4.7521,4.7445,4.7427,4.7398,4.7346,4.7343,4.7277,4.7258,4.721,4.7169,4.7178,4.7101,4.7084,4.7081,4.7131,4.7134,4.7137,4.7148,4.7133,0,0,0,0,0,4.7722,4.7687,4.7614,4.7586,4.7563,4.75,4.7473,4.7438,4.7382,4.7359,4.7304,4.7247,4.7195,4.7162,4.711,4.7064,4.7043,4.7048,4.7052,4.7055,4.7052,4.7022,4.7022,4.7015,4.7015,4.7015,0,0,4.7738,4.7688,4.7669,4.7596,4.7554,4.7515,4.7483,4.7442,4.7411,4.7351,4.7299,4.7256,4.7187,4.7137,4.7112,4.7101,4.7049,4.7054,4.7057,4.7053,4.7021,4.7022,4.7023,4.7015,4.7015,4.7015,0,0,4.7747,4.7707,4.7679,4.7638,4.7576,4.7534,4.7527,4.7455,4.7426,4.7373,4.7327,4.7285,4.7199,4.7152,4.7116,4.7106,4.7071,4.709,4.7106,4.7078,4.7078,4.7079,4.7073,4.7072,4.7088,4.7088,4.7088,0,4.7773,4.7717,4.7667,4.763,4.7597,4.7547,4.7515,4.7476,4.7398,4.7374,4.7365,4.7254,4.7204,4.7141,4.7139,4.7113,4.7099,4.7099,4.7083,4.7083,4.7082,4.7076,4.7074,4.709,4.709,4.709,4.709,0,4.7751,4.7712,4.7695,4.7627,4.7593,4.7558,4.7499,4.7469,4.7436,4.7393,4.7338,4.7276,4.7211,4.7193,4.7159,4.7124,4.7119,4.7097,4.7078,4.7087,4.7079,4.7077,4.7094,4.7093,4.7092,4.7092,0,0,4.7791,4.7697,4.7692,4.7659,4.7587,4.7553,4.7514,4.7455,4.7429,4.7376,4.7339,4.7267,4.7246,4.7206,4.7165,4.7141,4.7134,4.7121,4.7118,4.7124,4.7089,4.7106,4.7104,4.7111,4.711,4.711,4.7094,0,4.7789,4.7723,4.7677,4.7626,4.7588,4.7538,4.7503,4.7452,4.7411,4.7368,4.7319,4.7269,4.7246,4.7221,4.7195,4.7141,4.7126,4.7141,4.7071,4.7069,4.709,4.7101,4.7118,4.7107,4.7091,4.7091,4.709,0,4.7777,4.7732,4.7679,4.761,4.7592,4.7563,4.7504,4.7465,4.7404,4.7375,4.7331,4.729,4.7241,4.7227,4.7156,4.7168,4.7136,4.7105,4.7103,4.7093,4.708,4.709,4.7102,4.71,4.7086,4.7086,4.7086,0,4.7811,4.7735,4.7694,4.7667,4.7586,4.7567,4.7531,4.747,4.7437,4.7383,4.736,4.7299,4.7266,4.7217,4.7158,4.7154,4.7093,4.7075,4.7063,4.7065,4.7052,4.7054,4.7058,4.7033,4.7033,4.7034,4.7034,0,4.7812,4.7782,4.7708,4.7682,4.7645,4.759,4.7552,4.7511,4.7458,4.7419,4.7371,4.7334,4.7261,4.7214,4.7167,4.7114,4.7099,4.7071,4.7058,4.7075,4.7078,4.7052,4.7051,4.7033,4.7033,4.7033,4.7033,0,4.7843,4.7793,4.7745,4.7673,4.7654,4.7629,4.7565,4.7535,4.7491,4.7443,4.7428,4.7357,4.7299,4.7237,4.7157,4.7125,4.7074,4.7057,4.7097,4.7089,4.7081,4.7083,4.7068,4.7063,4.7044,4.7044,4.7044,0,4.7847,4.7823,4.775,4.7724,4.7691,4.7648,4.7615,4.7558,4.7524,4.7453,4.7431,4.7371,4.732,4.7228,4.7166,4.7103,4.7084,4.7083,4.7073,4.709,4.7082,4.7084,4.708,4.7086,4.7086,4.7087,4.7087,0,4.7859,4.7836,4.7793,4.7741,4.7704,4.7659,4.7611,4.7591,4.7523,4.7487,4.7431,4.7391,4.7311,4.725,4.718,4.7137,4.7099,4.7091,4.7084,4.71,4.7124,4.711,4.7103,4.7091,4.7091,4.709,4.709,4.709,4.7876,4.7852,4.7797,4.775,4.7709,4.7666,4.7635,4.7588,4.7542,4.7477,4.7444,4.7387,4.7322,4.7225,4.7183,4.7133,4.7122,4.7113,4.711,4.7109,4.7113,4.7133,4.712,4.712,4.7119,4.7119,4.7119,0,4.7884,4.7847,4.7805,4.7742,4.7704,4.7678,4.7623,4.7591,4.7544,4.749,4.7442,4.7375,4.7315,4.7249,4.7184,4.7157,4.7137,4.7141,4.7142,4.7132,4.7128,4.7139,4.7158,4.7158,4.7158,4.7158,4.7158,4.7158,4.7884,4.7842,4.7812,4.7747,4.7708,4.7656,4.7627,4.7585,4.7542,4.7472,4.7424,4.7383,4.7322,4.7253,4.7195,4.7177,4.7154,4.7163,4.7139,4.7136,4.7132,4.7129,4.714,4.7159,4.7159,4.7147,4.7147,4.7147]},{"header":{"parameterUnit":"m.s-1","parameterCategory":1,"la1":30.2991,"la2":30.254,"lo1":-89.0895,"lo2":-89.0444,"dy":0.0017,"dx":0.0017,"nx":28,"ny":28,"refTime":"2025-05-29T03:00:00:Z","depth":0,"parameterNumber":3,"parameterNumberName":"V-component_of_WINDS"},"data":[0,0,0,0,0,0,0,0,0,0,0,0,0,0,0,0,0,0,0,0,0,0,0,0,0,0,0,0,0,0,0,0,0,0,0,0,0,0,0,0,0,0,0,0,0,0,0,0,0,0,0,0,0,0,0,0,0,0,-0.725,-0.7247,0,-0.6945,-0.6941,-0.6938,-0.6786,-0.6786,-0.6786,-0.6786,-0.6472,-0.6464,-0.6455,0,0,0,0,0,0,0,0,0,0,0,0,0,-0.7701,-0.7694,-0.7251,-0.7247,-0.7243,-0.6945,-0.6941,-0.6937,-0.6786,-0.6786,-0.6786,-0.6786,-0.6475,-0.6465,-0.6455,0,0,0,0,0,0,0,0,0,0,0,0,0,-0.7462,-0.7692,-0.7251,-0.7132,-0.7118,-0.6946,-0.6941,-0.6936,-0.6786,-0.6786,-0.6786,-0.6786,-0.6478,-0.6466,-0.6453,-0.6376,0,0,-0.6415,-0.6409,0,0,0,0,0,0,0,0,-0.7476,-0.7445,-0.7153,-0.714,-0.7124,-0.6904,-0.6984,-0.6748,-0.6786,-0.6912,-0.6786,-0.6786,-0.6615,-0.6592,-0.6534,-0.6361,-0.6347,-0.6414,-0.6406,-0.6401,-0.6397,0,0,0,0,0,0,0,-0.7492,-0.7458,-0.7129,-0.7149,-0.7131,-0.7093,-0.7059,-0.6939,-0.6768,-0.6901,-0.689,-0.6856,-0.6607,-0.6547,-0.6526,-0.6343,-0.6414,-0.6403,-0.6395,-0.639,-0.6089,-0.6088,0,0,0,0,0,0,-0.7529,-0.7473,-0.7139,-0.712,-0.7304,-0.7085,-0.7047,-0.6974,-0.6768,-0.6737,-0.6856,-0.685,-0.6568,-0.654,-0.6514,-0.6408,-0.6401,-0.6389,-0.6382,-0.6089,-0.6088,-0.6088,0,0,0,0,0,0,-0.7539,-0.75,-0.7151,-0.7293,-0.7246,-0.7077,-0.6997,-0.6968,-0.6907,-0.6734,-0.6703,-0.6826,-0.6567,-0.6532,-0.6411,-0.6395,-0.6383,-0.6372,-0.609,-0.6089,-0.6088,-0.6197,0,0,0,0,0,0,-0.7553,-0.7505,-0.7475,-0.7293,-0.7239,-0.7055,-0.6996,-0.6962,-0.6886,-0.6875,-0.6697,-0.6668,-0.6564,-0.643,-0.6398,-0.6378,-0.6362,-0.609,-0.6089,-0.6088,-0.6194,-0.62,-0.6206,0,0,0,0,0,-0.7569,-0.7518,-0.7474,-0.7434,-0.7197,-0.7054,-0.7022,-0.6905,-0.6886,-0.6853,-0.6741,-0.6673,-0.6402,-0.6419,-0.6382,-0.6357,-0.6091,-0.609,-0.6089,-0.6192,-0.6199,-0.6205,0,0,0,0,0,0,-0.7701,-0.7492,-0.7441,-0.7329,-0.7211,-0.7029,-0.6984,-0.6917,-0.6801,-0.6795,-0.6654,-0.6615,-0.6507,-0.642,-0.6442,-0.627,-0.624,-0.6231,-0.6331,-0.6337,-0.6342,-0.6365,-0.6352,0,0,0,0,0,-0.7717,-0.7619,-0.7441,-0.736,-0.7303,-0.7154,-0.7087,-0.7007,-0.6878,-0.6827,-0.6707,-0.6584,-0.647,-0.6399,-0.6285,-0.6181,-0.6139,-0.6146,-0.6152,-0.6157,-0.6151,-0.6088,-0.6088,-0.6084,-0.6084,-0.6084,0,0,-0.775,-0.7623,-0.757,-0.7383,-0.7282,-0.7182,-0.7113,-0.7011,-0.6935,-0.6811,-0.6689,-0.6597,-0.645,-0.6338,-0.6282,-0.6262,-0.6143,-0.6156,-0.6161,-0.6152,-0.6087,-0.6087,-0.6088,-0.6084,-0.6084,-0.6084,0,0,-0.7757,-0.7652,-0.7572,-0.7472,-0.7319,-0.722,-0.7201,-0.7029,-0.6963,-0.6838,-0.6743,-0.6651,-0.6459,-0.6358,-0.6281,-0.625,-0.6182,-0.6217,-0.6246,-0.6186,-0.6186,-0.6186,-0.6173,-0.617,-0.6212,-0.6212,-0.6212,0,-0.7816,-0.7663,-0.754,-0.7442,-0.7362,-0.7246,-0.7162,-0.7071,-0.6889,-0.6836,-0.6817,-0.6573,-0.6466,-0.6327,-0.6319,-0.6262,-0.6234,-0.6236,-0.6196,-0.6195,-0.6192,-0.6178,-0.6174,-0.6217,-0.6216,-0.6216,-0.6215,0,-0.7743,-0.7638,-0.7591,-0.7418,-0.7333,-0.7244,-0.7106,-0.7034,-0.6961,-0.6864,-0.6738,-0.6606,-0.6463,-0.6424,-0.6352,-0.6274,-0.6266,-0.6224,-0.619,-0.62,-0.6184,-0.6178,-0.6224,-0.6222,-0.6221,-0.622,0,0,-0.7825,-0.7584,-0.7569,-0.7488,-0.7311,-0.7227,-0.7131,-0.6991,-0.6932,-0.6811,-0.6726,-0.6566,-0.6525,-0.6439,-0.6354,-0.6302,-0.6283,-0.6264,-0.6259,-0.6271,-0.6188,-0.622,-0.6216,-0.6238,-0.6236,-0.6235,-0.62,0,-0.7807,-0.7631,-0.7516,-0.7385,-0.7286,-0.7173,-0.7089,-0.6971,-0.6878,-0.6779,-0.6676,-0.6564,-0.6519,-0.6466,-0.641,-0.6298,-0.6264,-0.6299,-0.6157,-0.6153,-0.6196,-0.6208,-0.6242,-0.6215,-0.6193,-0.6192,-0.6191,0,-0.7762,-0.7643,-0.7503,-0.7334,-0.7288,-0.7216,-0.7077,-0.6985,-0.6848,-0.6783,-0.6687,-0.66,-0.6494,-0.647,-0.6321,-0.6347,-0.6282,-0.6218,-0.6214,-0.6195,-0.6172,-0.6189,-0.6204,-0.62,-0.6181,-0.6181,-0.6182,0,-0.7835,-0.764,-0.7529,-0.7464,-0.7266,-0.7217,-0.7132,-0.6994,-0.6917,-0.6796,-0.6744,-0.6613,-0.6541,-0.6441,-0.6321,-0.6315,-0.6183,-0.615,-0.6126,-0.6129,-0.6102,-0.6105,-0.6106,-0.6063,-0.6063,-0.6063,-0.6063,0,-0.7826,-0.7744,-0.7559,-0.7492,-0.7396,-0.7264,-0.7173,-0.7078,-0.6957,-0.6868,-0.6763,-0.6682,-0.6529,-0.6429,-0.6335,-0.6225,-0.6193,-0.6137,-0.6113,-0.6146,-0.6153,-0.6101,-0.6099,-0.6062,-0.6062,-0.6062,-0.6063,0,-0.7891,-0.7764,-0.7636,-0.7458,-0.7412,-0.7349,-0.7196,-0.7125,-0.7026,-0.6915,-0.6882,-0.6726,-0.6602,-0.6473,-0.6306,-0.6242,-0.6135,-0.6102,-0.6182,-0.6168,-0.6151,-0.6154,-0.6117,-0.6105,-0.6073,-0.6073,-0.6074,0,-0.7894,-0.7828,-0.7642,-0.7575,-0.7492,-0.7386,-0.7306,-0.7174,-0.7095,-0.6933,-0.6882,-0.675,-0.6638,-0.6446,-0.6318,-0.6189,-0.6151,-0.6147,-0.6131,-0.6166,-0.6149,-0.6154,-0.6146,-0.6152,-0.6153,-0.6154,-0.6155,0,-0.7911,-0.7851,-0.774,-0.7607,-0.7515,-0.7403,-0.7288,-0.7239,-0.7084,-0.7001,-0.6873,-0.6786,-0.6615,-0.6485,-0.6341,-0.6252,-0.6177,-0.6161,-0.6148,-0.6181,-0.6229,-0.6201,-0.6196,-0.6162,-0.6162,-0.6161,-0.6161,-0.616,-0.7943,-0.7878,-0.7737,-0.7617,-0.7516,-0.7411,-0.7335,-0.7226,-0.7118,-0.6968,-0.6896,-0.6768,-0.6631,-0.6429,-0.6342,-0.6239,-0.6218,-0.62,-0.6195,-0.6192,-0.62,-0.6247,-0.6213,-0.6212,-0.6212,-0.6212,-0.6211,0,-0.7953,-0.7857,-0.7747,-0.7589,-0.7494,-0.7432,-0.7301,-0.7226,-0.7114,-0.6993,-0.6884,-0.6737,-0.661,-0.6472,-0.6337,-0.6281,-0.6244,-0.625,-0.6252,-0.6233,-0.6228,-0.6251,-0.6283,-0.6283,-0.6283,-0.6283,-0.6283,-0.6283,-0.7948,-0.7835,-0.7758,-0.7593,-0.7497,-0.737,-0.7301,-0.7202,-0.7104,-0.6944,-0.6838,-0.6749,-0.662,-0.6474,-0.6355,-0.6318,-0.6272,-0.6289,-0.6242,-0.6239,-0.6234,-0.6228,-0.625,-0.6281,-0.6281,-0.6255,-0.6255,-0.6255]}]]